Time,TemperatureF,DewpointF,PressureIn,WindDirection,WindDirectionDegrees,WindSpeedMPH,WindSpeedGustMPH,Humidity,HourlyPrecipIn,Conditions,Clouds,dailyrainin,SoftwareType,DateUTC
2013-02-14 00:02:00,26.0,25.0,-100.00,ENE,67,0.0,2.0,93,0.00,,,-99.99,,2013-02-14 05:02:00,
2013-02-14 00:11:00,27.0,27.0,-100.00,ENE,60,1.0,2.0,94,0.00,,,-99.99,,2013-02-14 05:11:00,
2013-02-14 00:22:00,28.0,28.0,-100.00,NE,52,1.0,2.0,94,0.00,,,-99.99,,2013-02-14 05:22:00,
2013-02-14 00:32:00,28.0,27.0,-100.00,NE,53,1.0,2.0,93,0.00,,,-99.99,,2013-02-14 05:32:00,
2013-02-14 00:42:00,28.0,27.0,-100.00,ENE,63,1.0,2.0,93,0.00,,,-99.99,,2013-02-14 05:42:00,
2013-02-14 00:52:00,28.0,28.0,-100.00,NE,43,1.0,2.0,93,0.00,,,-99.99,,2013-02-14 05:52:00,
2013-02-14 01:02:00,29.0,28.0,-100.00,NNE,25,0.0,2.0,93,0.00,,,-99.99,,2013-02-14 06:02:00,
2013-02-14 01:11:00,27.0,27.0,-100.00,East,86,0.0,2.0,93,0.00,,,-99.99,,2013-02-14 06:11:00,
2013-02-14 01:21:00,28.0,27.0,-100.00,East,93,0.0,2.0,93,0.00,,,-99.99,,2013-02-14 06:21:00,
2013-02-14 01:32:00,28.0,27.0,-100.00,East,93,0.0,2.0,93,0.00,,,-99.99,,2013-02-14 06:32:00,
2013-02-14 01:42:00,28.0,27.0,-100.00,East,88,0.0,2.0,93,0.00,,,-99.99,,2013-02-14 06:42:00,
2013-02-14 01:51:00,27.0,27.0,-100.00,NE,43,0.0,2.0,91,0.00,,,-99.99,,2013-02-14 06:51:00,
2013-02-14 02:01:00,28.0,28.0,-100.00,NE,52,0.0,2.0,93,0.00,,,-99.99,,2013-02-14 07:01:00,
2013-02-14 02:11:00,28.0,27.0,-100.00,WSW,241,0.0,2.0,91,0.00,,,-99.99,,2013-02-14 07:11:00,
2013-02-14 02:21:00,28.0,27.0,-100.00,South,190,0.0,2.0,93,0.00,,,-99.99,,2013-02-14 07:21:00,
2013-02-14 02:32:00,28.0,28.0,-100.00,NE,48,0.0,2.0,93,0.00,,,-99.99,,2013-02-14 07:32:00,
2013-02-14 02:42:00,28.0,27.0,-100.00,NNE,32,2.0,4.0,91,0.00,,,-99.99,,2013-02-14 07:42:00,
2013-02-14 02:52:00,29.0,28.0,-100.00,NE,38,1.0,4.0,91,0.00,,,-99.99,,2013-02-14 07:52:00,
2013-02-14 03:01:00,29.0,27.0,-100.00,SSW,193,0.0,4.0,90,0.00,,,-99.99,,2013-02-14 08:01:00,
2013-02-14 03:11:00,29.0,27.0,-100.00,NE,53,1.0,4.0,91,0.00,,,-99.99,,2013-02-14 08:11:00,
2013-02-14 03:22:00,28.0,27.0,-100.00,NW,313,1.0,1.0,91,0.00,,,-99.99,,2013-02-14 08:22:00,
2013-02-14 03:32:00,29.0,28.0,-100.00,West,265,0.0,1.0,93,0.00,,,-99.99,,2013-02-14 08:32:00,
2013-02-14 03:43:00,28.0,27.0,-100.00,West,261,0.0,1.0,91,0.00,,,-99.99,,2013-02-14 08:43:00,
2013-02-14 03:52:00,28.0,27.0,-100.00,WNW,283,0.0,1.0,90,0.00,,,-99.99,,2013-02-14 08:52:00,
2013-02-14 04:02:00,29.0,28.0,-100.00,NW,321,1.0,1.0,91,0.00,,,-99.99,,2013-02-14 09:02:00,
2013-02-14 04:11:00,28.0,27.0,-100.00,North,355,1.0,1.0,91,0.00,,,-99.99,,2013-02-14 09:11:00,
2013-02-14 04:21:00,29.0,28.0,-100.00,NW,323,0.0,1.0,93,0.00,,,-99.99,,2013-02-14 09:21:00,
2013-02-14 04:32:00,30.0,28.0,-100.00,NNE,33,1.0,2.0,93,0.00,,,-99.99,,2013-02-14 09:32:00,
2013-02-14 04:42:00,29.0,28.0,-100.00,NNE,32,1.0,2.0,93,0.00,,,-99.99,,2013-02-14 09:42:00,
2013-02-14 04:52:00,29.0,28.0,-100.00,NNW,328,1.0,2.0,93,0.00,,,-99.99,,2013-02-14 09:52:00,
2013-02-14 05:02:00,30.0,28.0,-100.00,NNE,32,0.0,2.0,93,0.00,,,-99.99,,2013-02-14 10:02:00,
2013-02-14 05:11:00,28.0,27.0,-100.00,NNE,19,2.0,2.0,90,0.00,,,-99.99,,2013-02-14 10:11:00,
2013-02-14 05:21:00,28.0,27.0,-100.00,NW,324,1.0,2.0,93,0.00,,,-99.99,,2013-02-14 10:21:00,
2013-02-14 05:32:00,28.0,27.0,-100.00,North,357,3.0,4.0,93,0.00,,,-99.99,,2013-02-14 10:32:00,
2013-02-14 05:42:00,29.0,28.0,-100.00,NNE,22,2.0,4.0,95,0.00,,,-99.99,,2013-02-14 10:42:00,
2013-02-14 05:52:00,28.0,28.0,-100.00,NNW,341,4.0,6.0,93,0.00,,,-99.99,,2013-02-14 10:52:00,
2013-02-14 06:02:00,30.0,28.0,-100.00,NNE,18,5.0,6.0,94,0.00,,,-99.99,,2013-02-14 11:02:00,
2013-02-14 06:11:00,30.0,30.0,-100.00,ENE,62,6.0,8.0,94,0.00,,,-99.99,,2013-02-14 11:11:00,
2013-02-14 06:22:00,27.0,27.0,-100.00,North,8,4.0,8.0,93,0.00,,,-99.99,,2013-02-14 11:22:00,
2013-02-14 06:32:00,28.0,27.0,-100.00,NNW,343,7.0,10.0,94,0.00,,,-99.99,,2013-02-14 11:32:00,
2013-02-14 06:42:00,29.0,28.0,-100.00,North,9,6.0,10.0,94,0.00,,,-99.99,,2013-02-14 11:42:00,
2013-02-14 06:52:00,34.0,32.0,-100.00,NE,38,7.0,10.0,94,0.00,,,-99.99,,2013-02-14 11:52:00,
2013-02-14 07:02:00,28.0,27.0,-100.00,North,4,7.0,12.0,93,0.00,,,-99.99,,2013-02-14 12:02:00,
2013-02-14 07:12:00,29.0,28.0,-100.00,NNE,16,6.0,12.0,94,0.00,,,-99.99,,2013-02-14 12:12:00,
2013-02-14 07:22:00,29.0,28.0,-100.00,North,8,5.0,12.0,94,0.00,,,-99.99,,2013-02-14 12:22:00,
2013-02-14 07:32:00,31.0,30.0,-100.00,North,11,6.0,12.0,94,0.00,,,-99.99,,2013-02-14 12:32:00,
2013-02-14 07:42:00,31.0,30.0,-100.00,NNE,28,6.0,12.0,94,0.00,,,-99.99,,2013-02-14 12:42:00,
2013-02-14 07:53:00,31.0,30.0,-100.00,North,1,5.0,12.0,94,0.00,,,-99.99,,2013-02-14 12:53:00,
2013-02-14 08:02:00,34.0,32.0,-100.00,NNE,32,5.0,12.0,94,0.00,,,-99.99,,2013-02-14 13:02:00,
2013-02-14 08:11:00,30.0,30.0,-100.00,North,5,4.0,12.0,94,0.00,,,-99.99,,2013-02-14 13:11:00,
2013-02-14 08:21:00,33.0,32.0,-100.00,NNE,16,4.0,12.0,95,0.00,,,-99.99,,2013-02-14 13:21:00,
2013-02-14 08:32:00,32.0,32.0,-100.00,North,358,4.0,12.0,94,0.00,,,-99.99,,2013-02-14 13:32:00,
2013-02-14 08:42:00,32.0,32.0,-100.00,NNE,16,2.0,12.0,94,0.00,,,-99.99,,2013-02-14 13:42:00,
2013-02-14 08:51:00,32.0,32.0,-100.00,NNE,25,4.0,12.0,94,0.00,,,-99.99,,2013-02-14 13:51:00,
2013-02-14 09:01:00,33.0,32.0,-100.00,North,360,4.0,12.0,93,0.00,,,-99.99,,2013-02-14 14:01:00,
2013-02-14 09:11:00,32.0,30.0,-100.00,NNE,29,4.0,12.0,93,0.00,,,-99.99,,2013-02-14 14:11:00,
2013-02-14 09:21:00,33.0,32.0,-100.00,NNE,31,4.0,12.0,94,0.00,,,-99.99,,2013-02-14 14:21:00,
2013-02-14 09:32:00,34.0,32.0,-100.00,North,9,5.0,12.0,94,0.00,,,-99.99,,2013-02-14 14:32:00,
2013-02-14 09:42:00,33.0,32.0,-100.00,NNE,25,7.0,12.0,94,0.00,,,-99.99,,2013-02-14 14:42:00,
2013-02-14 09:52:00,34.0,32.0,-100.00,NNE,19,9.0,14.0,95,0.00,,,-99.99,,2013-02-14 14:52:00,
2013-02-14 10:02:00,34.0,32.0,-100.00,NE,42,9.0,14.0,95,0.00,,,-99.99,,2013-02-14 15:02:00,
2013-02-14 10:11:00,32.0,32.0,-100.00,North,7,8.0,14.0,94,0.00,,,-99.99,,2013-02-14 15:11:00,
2013-02-14 10:21:00,33.0,32.0,-100.00,NNE,21,7.0,14.0,94,0.00,,,-99.99,,2013-02-14 15:21:00,
2013-02-14 10:32:00,33.0,32.0,-100.00,NE,35,8.0,14.0,95,0.00,,,-99.99,,2013-02-14 15:32:00,
2013-02-14 10:42:00,33.0,32.0,-100.00,NNE,15,11.0,14.0,94,0.00,,,-99.99,,2013-02-14 15:42:00,
2013-02-14 10:52:00,33.0,32.0,-100.00,NE,36,8.0,14.0,95,0.00,,,-99.99,,2013-02-14 15:52:00,
2013-02-14 11:02:00,33.0,32.0,-100.00,NNE,19,7.0,14.0,95,0.00,,,-99.99,,2013-02-14 16:02:00,
2013-02-14 11:11:00,34.0,32.0,-100.00,NE,38,7.0,14.0,95,0.00,,,-99.99,,2013-02-14 16:11:00,
2013-02-14 11:22:00,34.0,32.0,-100.00,NNE,16,8.0,14.0,93,0.00,,,-99.99,,2013-02-14 16:22:00,
2013-02-14 11:32:00,34.0,32.0,-100.00,NE,35,9.0,14.0,94,0.00,,,-99.99,,2013-02-14 16:32:00,
2013-02-14 11:42:00,34.0,32.0,-100.00,NE,39,7.0,14.0,95,0.00,,,-99.99,,2013-02-14 16:42:00,
2013-02-14 11:51:00,34.0,32.0,-100.00,NNE,25,5.0,14.0,93,0.00,,,-99.99,,2013-02-14 16:51:00,
2013-02-14 12:01:00,34.0,32.0,-100.00,NNE,33,6.0,14.0,93,0.00,,,-99.99,,2013-02-14 17:01:00,
2013-02-14 12:11:00,35.0,32.0,-100.00,NNE,33,9.0,14.0,93,0.00,,,-99.99,,2013-02-14 17:11:00,
2013-02-14 12:21:00,34.0,32.0,-100.00,SE,124,8.0,14.0,93,0.00,,,-99.99,,2013-02-14 17:21:00,
2013-02-14 12:32:00,36.0,32.0,-100.00,NW,317,9.0,14.0,91,0.00,,,-99.99,,2013-02-14 17:32:00,
2013-02-14 12:42:00,36.0,34.0,-100.00,NE,55,8.0,14.0,94,0.00,,,-99.99,,2013-02-14 17:42:00,
2013-02-14 12:52:00,36.0,34.0,-100.00,NNE,33,7.0,14.0,94,0.00,,,-99.99,,2013-02-14 17:52:00,
2013-02-14 13:01:00,35.0,32.0,-100.00,NNE,28,7.0,14.0,94,0.00,,,-99.99,,2013-02-14 18:01:00,
2013-02-14 13:11:00,34.0,32.0,-100.00,NNE,25,7.0,14.0,93,0.00,,,-99.99,,2013-02-14 18:11:00,
2013-02-14 13:23:00,35.0,32.0,-100.00,NNE,19,8.0,14.0,94,0.00,,,-99.99,,2013-02-14 18:23:00,
2013-02-14 13:32:00,34.0,32.0,-100.00,NNE,12,9.0,14.0,94,0.00,,,-99.99,,2013-02-14 18:32:00,
2013-02-14 13:42:00,35.0,32.0,-100.00,North,358,8.0,14.0,95,0.00,,,-99.99,,2013-02-14 18:42:00,
2013-02-14 13:52:00,36.0,34.0,-100.00,North,358,7.0,14.0,94,0.00,,,-99.99,,2013-02-14 18:52:00,
2013-02-14 14:02:00,35.0,32.0,-100.00,North,2,9.0,14.0,94,0.00,,,-99.99,,2013-02-14 19:02:00,
2013-02-14 14:11:00,35.0,32.0,-100.00,NNE,12,7.0,14.0,94,0.00,,,-99.99,,2013-02-14 19:11:00,
2013-02-14 14:22:00,35.0,32.0,-100.00,NNE,22,11.0,14.0,95,0.00,,,-99.99,,2013-02-14 19:22:00,
2013-02-14 14:32:00,36.0,34.0,-100.00,NNW,348,8.0,14.0,94,0.00,,,-99.99,,2013-02-14 19:32:00,
2013-02-14 14:42:00,37.0,34.0,-100.00,North,354,7.0,14.0,94,0.00,,,-99.99,,2013-02-14 19:42:00,
2013-02-14 14:52:00,36.0,34.0,-100.00,NNE,26,5.0,14.0,94,0.00,,,-99.99,,2013-02-14 19:52:00,
2013-02-14 15:01:00,36.0,34.0,-100.00,North,357,6.0,14.0,95,0.00,,,-99.99,,2013-02-14 20:01:00,
2013-02-14 15:11:00,37.0,34.0,-100.00,NE,45,5.0,14.0,95,0.00,,,-99.99,,2013-02-14 20:11:00,
2013-02-14 15:21:00,36.0,34.0,-100.00,NW,321,11.0,17.0,94,0.00,,,-99.99,,2013-02-14 20:21:00,
2013-02-14 15:32:00,34.0,32.0,-100.00,NNE,18,11.0,17.0,94,0.00,,,-99.99,,2013-02-14 20:32:00,
2013-02-14 15:42:00,36.0,34.0,-100.00,North,4,9.0,17.0,94,0.00,,,-99.99,,2013-02-14 20:42:00,
2013-02-14 15:52:00,36.0,34.0,-100.00,NNE,28,12.0,17.0,95,0.00,,,-99.99,,2013-02-14 20:52:00,
2013-02-14 16:02:00,36.0,34.0,-100.00,North,2,10.0,17.0,94,0.00,,,-99.99,,2013-02-14 21:02:00,
2013-02-14 16:11:00,37.0,34.0,-100.00,North,8,9.0,17.0,94,0.00,,,-99.99,,2013-02-14 21:11:00,
2013-02-14 16:22:00,37.0,34.0,-100.00,NNE,14,11.0,17.0,93,0.00,,,-99.99,,2013-02-14 21:22:00,
2013-02-14 16:32:00,37.0,34.0,-100.00,NNE,21,8.0,17.0,93,0.00,,,-99.99,,2013-02-14 21:32:00,
2013-02-14 16:42:00,37.0,34.0,-100.00,NNE,16,11.0,17.0,93,0.00,,,-99.99,,2013-02-14 21:42:00,
2013-02-14 16:51:00,37.0,34.0,-100.00,North,1,11.0,17.0,91,0.00,,,-99.99,,2013-02-14 21:51:00,
2013-02-14 17:02:00,37.0,34.0,-100.00,NNE,26,8.0,17.0,91,0.00,,,-99.99,,2013-02-14 22:02:00,
2013-02-14 17:11:00,38.0,34.0,-100.00,North,1,7.0,17.0,91,0.00,,,-99.99,,2013-02-14 22:11:00,
2013-02-14 17:21:00,38.0,34.0,-100.00,NW,314,7.0,17.0,90,0.00,,,-99.99,,2013-02-14 22:21:00,
2013-02-14 17:32:00,38.0,34.0,-100.00,NNE,12,9.0,17.0,90,0.00,,,-99.99,,2013-02-14 22:32:00,
2013-02-14 17:42:00,37.0,34.0,-100.00,North,351,8.0,17.0,89,0.00,,,-99.99,,2013-02-14 22:42:00,
2013-02-14 17:51:00,37.0,34.0,-100.00,NNE,31,8.0,17.0,90,0.00,,,-99.99,,2013-02-14 22:51:00,
2013-02-14 18:01:00,37.0,34.0,-100.00,NNE,14,7.0,17.0,89,0.00,,,-99.99,,2013-02-14 23:01:00,
2013-02-14 18:11:00,36.0,32.0,-100.00,NNE,24,6.0,17.0,89,0.00,,,-99.99,,2013-02-14 23:11:00,
2013-02-14 18:21:00,37.0,34.0,-100.00,North,2,6.0,17.0,89,0.00,,,-99.99,,2013-02-14 23:21:00,
2013-02-14 18:32:00,37.0,34.0,-100.00,North,4,5.0,17.0,89,0.00,,,-99.99,,2013-02-14 23:32:00,
2013-02-14 18:42:00,37.0,34.0,-100.00,North,0,6.0,17.0,90,0.00,,,-99.99,,2013-02-14 23:42:00,
2013-02-14 18:52:00,37.0,34.0,-100.00,NNE,24,7.0,17.0,89,0.00,,,-99.99,,2013-02-14 23:52:00,
2013-02-14 19:01:00,38.0,34.0,-100.00,North,351,6.0,17.0,91,0.00,,,-99.99,,2013-02-15 00:01:00,
2013-02-14 19:11:00,39.0,36.0,-100.00,North,351,7.0,17.0,91,0.00,,,-99.99,,2013-02-15 00:11:00,
2013-02-14 19:22:00,38.0,36.0,-100.00,North,8,6.0,17.0,90,0.00,,,-99.99,,2013-02-15 00:22:00,
2013-02-14 19:32:00,38.0,34.0,-100.00,North,355,5.0,17.0,91,0.00,,,-99.99,,2013-02-15 00:32:00,
2013-02-14 19:42:00,38.0,34.0,-100.00,SSE,163,6.0,17.0,90,0.00,,,-99.99,,2013-02-15 00:42:00,
2013-02-14 19:52:00,39.0,36.0,-100.00,NNE,26,9.0,17.0,89,0.00,,,-99.99,,2013-02-15 00:52:00,
2013-02-14 20:02:00,40.0,37.0,-100.00,NNE,12,9.0,17.0,90,0.00,,,-99.99,,2013-02-15 01:02:00,
2013-02-14 20:11:00,39.0,36.0,-100.00,NE,36,6.0,17.0,90,0.00,,,-99.99,,2013-02-15 01:11:00,
2013-02-14 20:21:00,39.0,36.0,-100.00,North,1,6.0,17.0,91,0.00,,,-99.99,,2013-02-15 01:21:00,
2013-02-14 20:32:00,39.0,36.0,-100.00,North,9,6.0,17.0,91,0.00,,,-99.99,,2013-02-15 01:32:00,
2013-02-14 20:42:00,39.0,36.0,-100.00,NE,48,6.0,17.0,90,0.00,,,-99.99,,2013-02-15 01:42:00,
2013-02-14 20:51:00,38.0,34.0,-100.00,NNE,29,6.0,17.0,89,0.00,,,-99.99,,2013-02-15 01:51:00,
2013-02-14 21:01:00,39.0,36.0,-100.00,ENE,77,6.0,17.0,90,0.00,,,-99.99,,2013-02-15 02:01:00,
2013-02-14 21:11:00,39.0,36.0,-100.00,NE,53,6.0,17.0,89,0.00,,,-99.99,,2013-02-15 02:11:00,
2013-02-14 21:21:00,39.0,36.0,-100.00,ENE,73,7.0,17.0,89,0.00,,,-99.99,,2013-02-15 02:21:00,
2013-02-14 21:32:00,39.0,36.0,-100.00,ENE,64,6.0,17.0,89,0.00,,,-99.99,,2013-02-15 02:32:00,
2013-02-14 21:42:00,39.0,36.0,-100.00,East,84,3.0,17.0,89,0.00,,,-99.99,,2013-02-15 02:42:00,
2013-02-14 21:52:00,39.0,36.0,-100.00,ESE,108,2.0,17.0,93,0.00,,,-99.99,,2013-02-15 02:52:00,
2013-02-14 22:02:00,39.0,36.0,-100.00,ESE,108,2.0,17.0,89,0.00,,,-99.99,,2013-02-15 03:02:00,
2013-02-14 22:11:00,39.0,34.0,-100.00,SSE,155,2.0,17.0,88,0.00,,,-99.99,,2013-02-15 03:11:00,
2013-02-14 22:22:00,39.0,34.0,-100.00,East,87,6.0,17.0,85,0.00,,,-99.99,,2013-02-15 03:22:00,
2013-02-14 22:32:00,39.0,32.0,-100.00,ENE,77,4.0,17.0,81,0.00,,,-99.99,,2013-02-15 03:32:00,
2013-02-14 22:42:00,39.0,32.0,-100.00,SE,146,6.0,17.0,81,0.00,,,-99.99,,2013-02-15 03:42:00,
2013-02-14 22:52:00,39.0,32.0,-100.00,SE,146,6.0,17.0,81,0.00,,,-99.99,,2013-02-15 03:52:00,
2013-02-14 23:01:00,36.0,30.0,-100.00,SSW,194,6.0,17.0,78,0.00,,,-99.99,,2013-02-15 04:01:00,
2013-02-14 23:11:00,36.0,30.0,-100.00,East,83,4.0,17.0,78,0.00,,,-99.99,,2013-02-15 04:11:00,
2013-02-14 23:21:00,37.0,32.0,-100.00,East,87,6.0,17.0,77,0.00,,,-99.99,,2013-02-15 04:21:00,
2013-02-14 23:32:00,37.0,30.0,-100.00,East,81,4.0,17.0,76,0.00,,,-99.99,,2013-02-15 04:32:00,
2013-02-14 23:42:00,36.0,30.0,-100.00,East,100,4.0,17.0,76,0.00,,,-99.99,,2013-02-15 04:42:00,
2013-02-14 23:52:00,36.0,30.0,-100.00,East,84,3.0,17.0,76,0.00,,,-99.99,,2013-02-15 04:52:00,